Terminal Aerodrome Forecast
Issued by NWS

Home | Current Version | Previous Version | Text Only | Print | Product List | Glossary On
Versions: 1 2 3 4 5 6 7 8 9 10 11 12 13 14 15 16 17 18 19 20 21 22 23 24 25 26 27 28 29 30 31 32 33 34 35 36 37 38 39 40 41 42 43 44 45 46 47 48 49 50
000
FTUS45 KVEF 292000 AAA
TAFLAS
TAF AMD
KLAS 292049Z 2921/3018 35006KT P6SM OVC120
     FM300300 24005KT P6SM OVC120
     FM300700 VRB06KT P6SM VCSH SCT060 OVC100
     FM301300 32006KT 6SM -RA BR SCT030 OVC060 PROB30 3013/3018 3SM
      RA BR BKN030=

USA.gov is the U.S. government's official web portal to all federal, state and local government web resources and services.